SCP
0 0 0 0 0 0 0 0 0 0 0 0 0 0 0 0 0 0 0 0 0 0 1 1 1 1 1 1 1 1 1 1 1 1 1 1 1 1 1 1 1 1 1
0 0 0 0 0 0 0 0 0 0 0 0 0 0 0 0 0 0 0 0 0 0 0 1 1 1 1 1 1 1 1 1 1 1 1 1 1 1 1 1 1 1 1
0 0 0 0 0 0 0 0 0 0 0 0 0 0 0 0 0 0 0 0 0 0 0 1 1 1 1 1 1 1 1 1 1 1 1 1 1 1 1 1 1 1 1
0 0 0 0 0 0 0 0 0 0 0 0 0 0 0 0 0 0 0 0 0 0 0 0 0 1 1 1 1 1 1 1 1 1 1 1 1 1 1 1 1 1 1
0 0 0 0 0 0 0 0 0 0 0 0 0 0 0 0 0 0 0 0 0 0 0 0 0 0 0 0 1 1 0 0 0 0 1 1 1 1 1 1 1 1 1
0 0 0 0 0 0 0 0 0 0 0 0 0 0 0 0 0 0 0 0 0 0 0 0 0 0 0 0 0 0 0 0 0 0 0 1 1 1 1 1 1 1 1
0 0 0 0 0 0 0 0 0 0 0 0 0 0 0 0 0 0 0 0 0 0 0 0 0 0 0 0 0 0 0 0 0 0 0 1 1 1 1 1 1 1 1
0 0 0 0 0 0 0 0 0 0 0 0 0 0 0 0 0 0 0 0 0 0 0 0 0 0 0 0 0 0 0 0 0 0 0 0 0 1 1 1 1 1 1
0 0 0 0 0 0 0 0 0 0 0 0 0 0 0 0 0 0 0 0 0 0 0 0 0 0 0 0 0 0 0 0 0 0 0 0 0 0 1 1 1 1 1
0 0 0 0 0 0 0 0 0 0 0 0 0 0 0 0 0 0 0 0 0 0 0 0 0 0 0 0 0 0 0 0 0 0 0 0 0 0 0 1 1 1 1
0 0 0 0 0 0 0 0 0 0 0 0 0 0 0 0 0 0 0 0 0 0 0 0 0 0 0 0 0 0 0 0 0 0 0 1 1 1 0 1 1 1 1
0 0 0 0 0 0 0 0 0 0 0 0 0 0 0 0 0 0 0 0 0 0 0 0 0 0 0 0 0 0 0 0 0 0 0 1 1 1 1 1 1 1 1
0 0 0 0 0 0 0 0 0 0 0 0 0 0 0 0 0 0 0 0 0 0 0 0 0 0 0 0 0 0 0 0 0 0 0 0 0 1 1 1 1 1 0
0 0 0 0 0 0 0 0 0 0 0 0 0 0 0 0 0 0 0 0 0 0 0 0 0 0 0 0 0 0 0 0 0 0 0 0 0 0 0 1 1 1 1
0 0 0 0 0 0 0 0 0 0 0 0 0 0 0 0 0 0 0 0 0 0 0 0 0 0 0 0 0 0 0 0 0 0 0 0 0 0 0 1 1 1 0
0 0 0 0 0 0 0 0 0 0 0 0 0 0 0 0 0 0 0 0 0 0 0 0 0 0 0 0 0 0 0 0 0 0 0 0 0 0 0 0 1 0 0
0 0 0 0 0 0 0 0 0 0 0 0 0 0 0 0 0 0 0 0 0 0 0 0 0 0 0 0 0 0 0 0 0 0 0 0 0 0 0 0 0 0 0
0 0 0 0 0 0 0 0 0 0 0 0 0 0 0 0 0 0 0 0 0 0 0 0 0 0 0 0 0 0 0 0 0 0 0 0 0 0 0 0 0 0 0
0 0 0 0 0 0 0 0 0 0 0 0 0 0 0 0 0 0 0 0 0 0 0 0 0 0 0 0 0 0 0 0 0 0 0 0 0 0 0 0 0 0 0
0 0 0 0 0 0 0 0 0 0 0 0 0 0 0 0 0 0 0 0 0 0 0 0 0 0 0 0 0 0 0 0 0 0 0 0 0 0 0 0 0 0 0
0 0 0 0 0 0 0 0 0 0 0 0 0 0 0 0 0 0 0 0 0 0 0 0 0 0 0 0 0 0 0 0 0 0 0 0 0 0 0 0 0 0 0
0 0 0 0 0 0 0 0 0 0 0 0 0 0 0 0 0 0 0 0 0 0 0 0 0 0 0 0 0 0 0 0 0 0 0 0 0 0 0 0 0 0 0
0 0 0 0 0 0 0 0 0 0 0 0 0 0 0 0 0 0 0 0 0 0 0 0 0 0 0 0 0 0 0 0 0 0 0 0 0 0 0 0 0 0 0
0 0 0 0 0 0 0 0 0 0 0 0 0 0 0 0 0 0 0 0 0 0 0 0 0 0 0 0 0 0 0 0 0 0 0 0 0 0 0 0 0 0 0
0 0 0 0 0 0 0 0 0 0 0 0 0 0 0 0 0 0 0 0 0 0 0 0 0 0 0 0 0 0 0 0 0 0 0 0 0 0 0 0 0 0 0
0 0 0 0 0 0 0 0 0 0 0 0 0 0 0 0 0 0 0 0 0 0 0 0 0 0 0 0 0 0 0 0 0 0 0 0 0 0 0 0 0 0 0
Wind_Speed
3 3 3 2 3 3 3 4 4 4 4 4 4 4 4 3 2 1 2 2 3 3 3 3 3 3 2 2 2 3 3 3 3 2 2 2 2 2 2 3 4 5 5
3 3 3 3 3 3 3 3 4 4 4 4 4 3 3 3 3 2 2 2 2 3 3 3 3 2 3 3 3 3 3 3 3 3 2 2 3 2 3 4 3 4 4
4 3 3 3 2 3 3 3 4 4 4 3 3 3 3 3 3 2 2 1 1 1 2 2 2 3 3 2 3 3 3 3 3 3 3 2 2 2 2 3 3 3 4
5 4 4 3 2 3 3 3 3 3 3 3 3 3 3 3 3 3 2 2 1 1 1 2 2 2 2 2 3 3 3 3 3 4 3 2 2 2 2 2 2 3 3
6 5 4 3 2 3 2 3 3 3 3 3 3 3 3 3 3 4 3 2 2 1 1 1 1 1 2 2 2 2 3 3 3 3 3 3 2 2 2 2 2 2 3
6 5 3 3 3 3 3 3 3 3 3 3 3 3 3 3 4 5 5 2 1 1 1 1 0 2 2 3 3 3 3 3 3 3 3 4 4 3 2 3 2 3 3
7 5 4 4 3 3 2 2 2 2 2 3 3 3 3 3 3 4 5 4 2 2 1 1 1 0 2 2 3 5 4 4 5 5 5 5 5 3 4 5 4 4 4
7 6 5 4 3 3 2 2 3 2 2 2 3 3 2 2 3 4 5 4 2 1 1 2 1 1 1 2 2 3 3 3 4 5 5 5 5 4 4 5 4 4 4
7 7 6 5 4 3 3 3 2 2 2 2 2 2 2 1 2 4 7 2 2 1 1 2 2 1 3 3 3 3 3 2 3 4 4 5 5 5 5 4 4 4 4
8 7 6 5 4 4 4 3 2 2 2 2 2 2 3 3 3 4 7 3 2 1 1 0 2 2 3 4 4 3 3 2 2 2 4 5 6 6 7 7 5 5 4
7 6 6 5 5 4 3 3 3 2 2 2 2 2 2 2 1 2 5 4 3 2 2 1 1 3 2 3 5 3 3 5 3 3 3 3 3 3 4 5 4 5 5
7 7 6 5 4 4 4 3 3 3 3 2 2 1 1 0 2 2 2 3 5 2 2 1 2 3 2 3 3 4 4 5 3 2 2 2 2 2 3 3 4 4 5
8 7 6 6 5 4 4 4 3 3 3 2 2 1 1 1 1 1 1 1 2 2 1 4 4 2 2 1 2 2 3 2 2 2 2 2 3 3 3 2 3 4 4
9 8 7 6 5 4 2 2 2 2 2 2 1 1 1 1 1 1 0 2 3 3 1 3 3 1 0 1 1 1 1 3 3 2 3 3 3 2 2 2 3 3 3
10 8 7 6 5 4 3 1 0 2 3 2 1 1 2 2 5 7 5 3 2 2 1 1 1 1 1 2 2 3 3 3 2 3 3 3 3 3 3 2 2 3 4
9 8 6 6 5 4 5 5 6 5 7 7 6 4 3 4 5 5 5 5 5 3 1 1 2 2 2 3 3 3 3 3 4 3 3 4 4 4 4 3 3 3 4
9 8 6 6 6 6 5 5 6 5 5 6 6 6 5 6 6 5 5 5 5 2 2 2 2 3 3 3 3 3 3 4 4 3 4 4 4 4 5 4 4 4 4
9 7 7 6 6 6 5 5 4 5 5 5 6 6 5 6 6 5 2 2 3 3 3 3 3 3 3 3 3 3 4 4 4 4 4 4 4 5 5 5 5 6 6
9 7 7 6 6 5 5 5 4 4 4 4 4 5 5 5 5 4 2 2 3 3 3 3 3 3 3 3 3 3 4 4 5 4 4 5 5 5 5 5 6 7 7
7 7 7 7 6 6 6 5 5 5 4 4 3 3 3 3 2 3 3 3 3 3 2 2 3 3 3 3 3 3 3 4 4 4 4 5 5 5 6 7 6 6 6
7 8 9 7 6 6 6 6 5 5 4 4 3 3 1 2 2 2 2 2 2 2 2 2 2 2 3 3 3 4 4 4 4 5 5 6 6 6 6 6 7 7 7
7 8 8 7 6 6 6 6 5 5 5 5 4 5 3 1 2 2 2 2 2 2 2 2 2 2 3 3 4 4 4 5 5 6 6 6 6 7 7 7 7 7 7
8 8 7 7 7 7 7 6 6 6 5 5 4 4 3 2 2 2 2 2 2 2 2 2 2 2 3 3 4 4 5 5 6 7 7 7 7 7 7 8 9 9 9
8 8 8 7 7 7 7 6 6 6 5 5 4 4 3 3 2 2 1 1 1 1 1 2 2 3 4 4 3 4 5 6 8 7 9 8 8 8 8 8 9 11 10
8 8 8 7 7 7 7 6 6 6 5 5 4 4 3 3 2 2 1 0 0 1 2 2 2 2 4 5 5 5 6 7 8 9 9 8 9 9 9 10 9 10 11
8 8 7 7 7 7 6 6 6 6 5 4 4 4 3 3 2 2 1 0 1 1 2 2 3 4 5 4 5 6 6 8 8 10 9 8 9 8 9 9 12 11 12
Wind_Direction
233 245 261 279 294 297 309 321 323 324 325 327 335 336 338 341 334 303 276 259 255 250 239 242 243 248 243 235 232 237 238 237 242 257 266 274 264 248 234 233 222 218 205
225 241 262 279 278 288 307 317 323 329 331 333 339 339 349 344 337 331 311 275 255 257 256 248 240 232 240 239 235 232 230 232 238 241 246 258 269 258 247 238 233 232 230
211 233 249 254 277 294 304 315 320 329 335 337 342 343 349 345 340 331 317 305 290 274 267 256 244 232 236 232 234 236 234 233 237 238 241 258 260 249 246 243 238 243 245
205 225 241 258 270 287 302 310 316 326 331 334 340 337 344 343 337 341 345 348 345 327 301 289 260 243 252 247 238 238 237 235 236 239 234 234 245 246 237 238 245 237 244
203 218 231 246 256 274 286 293 310 320 321 336 336 336 348 346 357 347 345 351 354 344 330 319 318 338 325 298 285 259 242 235 232 241 242 239 239 240 240 247 255 265 263
203 210 211 238 243 259 273 286 301 307 314 326 322 332 342 359 11 342 318 319 331 326 319 322 210 204 213 233 263 283 286 264 257 249 247 247 246 245 248 246 253 255 256
198 200 204 220 229 245 257 272 280 281 299 307 312 315 322 9 7 338 310 300 306 326 328 321 313 262 234 227 202 214 227 232 254 266 263 263 260 248 242 240 239 245 258
196 198 200 213 221 227 239 260 272 286 295 296 314 314 319 357 1 330 305 276 285 289 290 294 280 296 342 305 251 241 250 238 239 248 257 267 272 269 252 253 257 258 263
196 201 199 204 211 217 224 237 259 279 288 287 305 310 304 329 19 330 304 286 278 285 301 325 319 312 51 316 270 258 259 254 207 233 283 293 298 277 265 250 234 237 253
196 202 200 202 208 216 226 237 235 246 267 281 294 300 306 321 36 345 309 288 290 293 298 250 70 356 16 320 281 277 280 292 291 254 242 238 247 230 224 238 238 239 251
189 194 196 196 206 216 224 226 229 236 253 267 272 273 291 326 24 3 324 298 299 304 309 306 60 75 359 327 303 309 338 315 290 283 279 276 270 262 242 243 246 247 251
179 186 192 195 201 203 209 222 230 229 234 242 252 258 269 276 5 30 351 322 315 302 312 331 55 60 13 338 328 12 339 298 283 286 284 283 277 275 272 264 259 254 258
178 183 188 189 191 201 204 206 214 222 241 252 257 276 294 348 101 140 252 311 311 293 4 46 39 18 300 228 81 339 294 286 306 302 305 312 311 303 295 283 272 261 261
182 184 185 187 184 184 191 211 217 228 236 247 268 288 309 326 343 345 213 172 180 202 189 132 149 121 297 23 354 307 341 359 337 320 316 318 317 309 296 287 280 276 267
185 183 185 181 175 171 148 73 41 56 16 336 332 329 330 350 25 9 345 351 359 26 2 136 78 70 55 49 35 23 10 5 355 346 334 326 319 318 316 307 295 288 278
187 183 180 175 170 168 154 126 69 71 72 62 41 20 52 47 41 46 48 44 37 15 331 87 59 42 31 24 23 22 14 6 359 352 349 343 335 329 324 318 309 298 295
188 181 177 179 173 175 173 167 151 127 104 80 66 58 56 58 61 63 68 68 50 30 80 67 53 39 28 22 13 8 12 7 355 352 349 346 341 335 331 328 322 316 309
189 178 176 176 177 178 178 178 175 171 159 133 103 83 76 72 64 55 49 132 87 70 59 53 47 36 26 17 11 5 4 4 357 354 352 349 343 334 330 327 325 325 315
182 176 175 170 172 174 172 172 171 168 158 148 138 122 113 112 94 53 25 70 71 68 61 51 37 29 22 14 9 2 360 360 358 351 350 347 342 335 330 326 322 323 312
173 162 166 169 169 170 171 170 167 164 160 155 148 138 143 155 124 98 82 69 67 63 54 47 34 21 14 8 3 354 349 352 349 344 341 340 337 330 327 324 322 318 313
164 160 169 173 171 169 169 169 165 164 160 151 133 97 41 147 117 102 91 78 61 52 45 36 28 17 11 1 352 348 347 349 348 343 340 337 333 328 324 319 318 315 313
163 165 171 170 166 167 166 165 163 160 156 150 139 132 146 170 122 112 97 80 64 46 35 20 19 16 1 354 349 346 345 346 347 344 338 333 327 322 318 315 314 313 310
162 163 164 163 160 156 165 164 163 162 159 156 152 149 155 147 131 118 98 75 57 43 29 10 4 7 2 358 354 349 346 348 343 335 328 323 320 318 315 314 312 311 310
163 164 164 163 164 167 169 167 166 165 164 162 160 158 153 146 138 123 100 73 45 26 12 359 356 355 354 351 349 352 358 351 334 323 320 315 312 311 310 308 308 308 307
165 165 167 167 167 168 169 169 169 168 168 168 166 161 156 154 152 148 139 106 7 355 349 341 342 345 344 342 343 353 5 348 330 321 313 307 305 305 305 305 304 305 303
165 165 166 166 167 170 171 171 172 171 171 169 168 165 165 166 169 172 175 198 302 314 320 326 335 332 327 327 345 349 333 319 315 311 306 303 301 300 303 300 300 299 297